Temperature
2 3 4 5 5 6 6 7 8 8 8 8 8 8 9 9 9 9 9 9 8 8 8 8 9 9 9 9 10 10 10 10 10 10 10 10 10 10
1 2 3 3 4 5 5 6 7 7 7 7 8 8 8 8 8 8 8 8 8 8 8 8 8 8 8 8 9 9 9 9 9 9 9 9 9 9
0 1 1 2 3 3 4 5 6 6 7 7 7 7 7 7 7 7 7 7 7 7 7 7 7 7 8 8 8 8 8 8 8 8 8 8 8 8
-1 -0 0 1 1 2 3 4 5 5 6 6 6 6 6 7 7 7 7 7 7 6 6 6 6 7 7 7 7 7 7 7 7 7 7 7 7 8
-2 -1 -0 -0 1 1 2 3 3 4 4 5 5 5 6 6 6 6 6 6 6 6 6 6 6 6 6 6 6 6 6 6 6 6 6 7 7 7
-3 -2 -1 -1 -0 0 1 1 2 3 3 4 4 5 5 5 5 6 6 5 5 5 5 5 5 5 5 5 5 5 5 5 5 5 5 5 6 6
-4 -3 -3 -2 -1 -1 -0 0 1 1 2 2 3 3 4 4 5 5 5 5 5 5 5 5 5 5 5 5 5 5 5 5 5 5 5 5 5 5
-5 -5 -4 -4 -3 -2 -2 -1 -1 -0 1 1 2 2 3 3 4 4 4 4 4 4 4 4 4 4 4 4 4 4 4 4 4 4 4 4 4 4
-6 -6 -6 -5 -5 -4 -3 -2 -2 -2 -1 -0 0 1 1 2 3 3 4 4 4 4 3 3 3 3 3 3 3 3 3 3 3 3 3 3 3 3
-7 -7 -7 -7 -6 -6 -5 -4 -4 -3 -3 -2 -1 -1 -0 0 1 2 2 3 3 3 3 2 2 2 2 2 2 2 2 2 2 2 3 2 2 2
-8 -8 -8 -8 -7 -7 -7 -6 -6 -5 -5 -4 -4 -3 -3 -2 -1 -0 1 1 1 1 1 1 1 1 1 1 1 1 1 1 1 2 2 1 1 1
-9 -8 -8 -8 -8 -8 -8 -7 -7 -7 -6 -6 -5 -5 -4 -4 -3 -2 -1 -1 -0 -0 -0 -0 0 0 -0 -0 -0 -0 -0 0 0 0 0 0 0 1
-9 -9 -9 -9 -9 -9 -9 -8 -8 -8 -8 -7 -7 -7 -6 -6 -5 -5 -4 -3 -2 -2 -2 -2 -1 -2 -2 -2 -2 -2 -2 -2 -2 -2 -1 -1 -1 -0
-10 -9 -9 -9 -9 -9 -9 -9 -9 -9 -9 -8 -8 -8 -8 -8 -7 -7 -6 -6 -5 -5 -4 -4 -4 -4 -4 -3 -3 -3 -3 -3 -3 -3 -2 -2 -1 -1
-10 -10 -10 -10 -10 -10 -10 -10 -10 -10 -10 -9 -9 -9 -9 -9 -8 -8 -8 -8 -7 -7 -6 -6 -5 -5 -5 -5 -4 -4 -4 -4 -4 -3 -3 -3 -2 -2
-11 -11 -10 -11 -11 -11 -11 -11 -11 -11 -10 -10 -10 -10 -10 -10 -9 -9 -9 -8 -8 -7 -7 -7 -6 -6 -6 -6 -5 -5 -5 -5 -5 -5 -4 -3 -3 -3
-11 -11 -11 -11 -12 -12 -12 -12 -12 -12 -11 -11 -11 -11 -11 -10 -10 -10 -10 -9 -9 -9 -8 -8 -8 -7 -7 -7 -6 -6 -6 -6 -6 -6 -5 -4 -3 -3
-12 -12 -12 -13 -13 -13 -13 -13 -13 -13 -13 -13 -12 -12 -12 -12 -11 -11 -11 -11 -10 -10 -10 -9 -9 -9 -8 -8 -8 -7 -7 -7 -7 -7 -7 -5 -3 -3
-13 -13 -14 -14 -14 -14 -14 -14 -14 -14 -14 -14 -14 -13 -13 -13 -13 -12 -12 -12 -12 -11 -11 -11 -10 -10 -9 -9 -9 -9 -9 -9 -8 -8 -7 -6 -5 -4
-14 -14 -14 -14 -14 -14 -14 -14 -15 -15 -15 -15 -15 -14 -14 -14 -14 -13 -13 -13 -13 -13 -12 -12 -12 -12 -11 -11 -10 -9 -10 -10 -9 -8 -7 -7 -6 -5
-15 -15 -15 -15 -15 -15 -15 -15 -15 -15 -15 -15 -15 -15 -15 -15 -15 -14 -14 -14 -14 -14 -13 -13 -13 -13 -12 -12 -11 -10 -10 -10 -11 -10 -9 -8 -7 -5
-15 -15 -15 -15 -15 -15 -15 -15 -16 -16 -16 -16 -16 -16 -16 -15 -15 -15 -15 -15 -15 -14 -14 -14 -14 -13 -13 -13 -12 -12 -11 -10 -10 -10 -10 -10 -10 -9
-15 -15 -15 -15 -15 -16 -16 -16 -16 -16 -16 -16 -16 -16 -16 -16 -16 -15 -15 -15 -15 -15 -15 -14 -14 -14 -13 -13 -13 -12 -12 -11 -10 -9 -8 -9 -9 -9
Wind_Speed
7 6 5 4 4 4 3 4 6 5 5 3 2 1 2 4 12 12 14 19 20 19 19 18 18 17 16 16 15 14 12 11 9 8 7 6 6 6
7 6 5 4 3 3 2 2 3 5 4 4 2 1 2 3 9 10 13 21 21 21 20 19 19 18 17 16 15 14 12 11 9 7 6 5 5 5
8 6 6 4 3 2 1 1 2 3 3 2 1 1 2 4 5 6 9 11 15 21 21 20 20 19 18 17 15 14 12 11 9 8 6 5 4 4
10 7 6 4 3 2 1 1 2 2 3 3 1 2 2 3 5 6 5 8 10 19 21 20 20 19 18 17 16 14 13 11 10 8 6 5 4 3
12 9 7 4 3 1 0 1 1 1 2 3 2 2 2 3 4 4 5 4 6 14 18 19 19 19 18 17 16 14 13 11 9 8 7 6 5 3
13 11 10 8 4 1 0 1 1 2 2 3 2 2 2 2 4 5 5 4 5 7 11 13 16 17 16 16 15 14 13 11 9 8 7 6 4 3
12 12 13 16 15 7 3 2 2 1 2 2 2 2 2 3 3 4 5 5 5 3 6 5 6 7 10 13 14 14 14 12 11 10 9 8 6 4
10 11 11 13 16 17 16 14 10 5 2 2 2 2 3 2 2 4 6 5 4 1 4 4 3 5 5 9 13 15 14 13 13 11 10 9 8 6
7 8 8 10 12 10 13 16 17 18 13 4 3 3 2 2 1 3 4 4 4 3 3 3 3 4 4 9 14 15 14 13 12 10 9 8 7 6
7 7 7 8 8 9 9 10 11 11 11 9 7 7 6 5 4 2 5 7 7 5 3 4 3 3 4 8 13 14 13 12 11 9 8 7 6 6
7 7 7 7 12 12 9 8 9 10 15 19 19 18 19 17 11 5 4 5 4 3 4 3 3 3 3 3 9 11 11 11 10 9 7 6 6 6
6 8 11 10 12 12 7 6 7 7 8 10 13 16 15 16 18 11 5 4 4 3 3 3 2 3 3 2 3 6 7 8 9 8 7 7 7 6
5 5 7 11 11 12 10 7 9 9 8 9 9 10 10 10 11 10 9 6 5 4 3 2 3 2 3 2 2 2 4 4 5 6 8 8 9 8
4 4 5 9 12 13 12 13 14 11 7 8 9 9 9 8 8 8 11 11 11 8 6 4 3 3 2 2 2 2 2 3 3 3 5 8 9 9
5 5 4 10 13 11 15 16 12 8 8 8 8 7 7 7 6 6 7 10 12 13 12 11 6 4 3 2 1 1 2 1 2 2 3 4 4 5
5 7 10 13 12 12 12 10 8 8 8 7 6 6 6 6 7 6 5 4 5 6 8 11 8 3 2 1 1 1 1 2 2 3 3 3 5 7
5 5 5 6 7 7 7 7 7 7 7 6 5 5 6 6 6 5 5 5 4 3 4 4 5 3 2 2 1 2 1 2 2 3 4 5 5 6
9 6 7 6 6 6 6 6 5 5 5 5 5 5 5 5 5 5 5 4 4 4 3 4 4 3 1 1 2 1 1 1 2 4 5 6 6 6
9 7 7 6 6 5 4 4 4 4 4 4 4 4 4 4 4 4 4 4 3 3 3 4 4 3 2 2 3 3 3 4 5 5 5 6 8 10
6 6 6 6 5 5 4 3 3 3 3 3 3 2 3 2 2 3 3 2 2 2 2 3 3 3 3 3 3 3 6 5 5 7 7 7 8 12
4 4 4 4 4 4 4 3 3 2 2 1 1 1 1 1 1 1 1 3 2 1 2 2 3 6 4 3 3 4 4 7 9 7 8 9 8 5
2 3 3 3 3 3 3 3 2 2 2 1 1 2 2 2 2 3 2 2 2 2 3 3 4 3 2 3 5 5 5 6 9 14 13 12 8 6
1 2 2 3 3 2 2 2 3 3 2 3 3 3 3 3 3 4 4 4 4 4 3 3 2 2 3 3 5 6 8 9 6 7 8 13 16 21
Wind_Direction
305 302 290 276 261 249 215 177 167 181 210 221 216 183 138 141 151 143 143 142 140 137 134 132 130 127 124 123 122 121 119 116 113 109 107 103 95 81
308 310 305 294 279 266 236 190 155 163 186 198 202 173 140 135 153 145 149 149 148 146 143 140 136 133 129 127 125 124 121 118 117 117 117 115 106 91
308 304 296 296 297 283 259 177 137 136 154 157 117 81 118 142 135 130 142 146 152 149 147 144 139 135 132 129 128 125 122 121 120 121 121 119 112 102
325 310 296 289 285 289 276 151 133 132 144 156 140 112 122 150 133 134 134 146 152 156 151 146 141 136 132 129 126 124 122 120 120 121 124 125 124 122
345 339 329 312 273 276 295 97 107 115 120 145 148 109 102 110 113 105 109 111 138 154 149 145 141 137 133 130 126 123 122 120 120 121 123 125 126 121
356 359 2 359 344 308 93 79 103 118 124 129 135 122 112 99 123 129 116 103 104 119 129 131 133 129 128 126 124 122 120 119 118 120 121 124 126 129
1 4 9 15 17 23 49 63 79 102 119 137 143 130 127 122 146 138 132 116 71 88 105 95 102 100 107 117 116 116 113 108 104 102 97 91 85 79
2 6 11 16 17 24 38 49 54 61 75 109 134 140 123 105 122 141 138 141 136 100 104 85 82 92 91 107 116 112 106 100 93 87 80 71 60 48
5 10 16 15 24 22 31 40 42 46 48 54 64 61 80 52 124 145 143 130 126 144 115 104 82 86 69 100 112 108 102 94 83 72 61 50 37 21
6 9 11 14 34 41 40 42 39 39 49 51 59 58 60 51 51 91 115 103 83 40 41 116 110 89 69 71 95 98 94 83 70 55 41 27 10 360
8 9 10 16 42 51 48 46 41 33 47 56 57 54 53 53 51 68 100 125 109 59 22 95 111 97 78 67 67 77 84 71 53 38 26 12 0 4
11 7 13 31 48 60 55 56 55 45 49 51 52 50 47 44 45 39 41 88 102 95 31 79 97 114 117 78 61 58 64 52 35 30 26 15 3 6
15 7 1 28 47 59 65 68 82 78 66 63 59 54 50 46 41 38 38 49 80 87 52 74 95 86 101 107 82 65 59 33 20 26 24 12 1 354
0 347 357 42 59 69 67 68 74 73 66 64 59 53 49 46 43 43 50 58 66 75 54 52 84 89 98 89 89 48 26 32 27 21 7 358 355 350
350 352 62 76 67 62 67 67 63 62 65 65 62 56 50 44 43 47 55 68 67 63 55 52 63 81 88 112 99 29 350 351 14 0 339 332 323 328
7 33 65 80 75 68 63 59 58 67 70 67 66 58 53 52 47 41 44 53 67 56 48 47 44 58 105 152 189 220 241 290 315 319 310 294 301 303
42 56 66 72 74 71 66 63 60 59 63 61 61 59 55 54 48 41 42 47 62 52 27 16 7 349 236 199 211 230 236 266 281 313 325 315 295 291
48 48 54 59 63 65 69 68 65 65 64 66 59 57 55 53 52 51 56 56 63 55 37 10 359 6 24 166 208 244 279 294 308 320 322 313 306 300
44 40 41 43 46 49 55 62 62 61 60 64 64 53 54 52 53 51 50 52 54 50 35 21 18 24 30 12 7 40 22 343 325 317 312 305 300 302
34 35 32 31 32 33 35 41 51 54 57 63 63 51 40 42 46 43 36 28 33 32 27 21 14 11 1 335 314 300 318 310 314 312 310 306 292 289
26 25 23 21 23 23 21 24 28 30 41 45 40 26 9 11 2 352 342 342 11 12 329 320 319 328 323 302 282 278 282 301 308 302 308 311 309 294
14 8 1 4 8 6 360 2 3 357 355 328 296 283 272 260 261 265 264 267 262 258 267 280 297 308 288 265 276 286 295 301 307 305 292 280 282 291
328 330 329 331 332 326 322 319 310 297 282 269 268 264 255 250 251 252 254 253 255 259 266 282 288 267 259 263 277 285 288 299 306 308 299 291 281 276
Height
1409 1409 1409 1409 1411 1412 1414 1417 1419 1420 1423 1425 1427 1430 1433 1436 1439 1442 1446 1450 1454 1458 1461 1466 1470 1474 1479 1483 1487 1491 1494 1497 1500 1503 1505 1508 1509 1511
1404 1403 1403 1403 1404 1405 1407 1410 1412 1415 1418 1421 1423 1426 1430 1434 1437 1441 1445 1448 1452 1456 1459 1463 1467 1471 1475 1479 1483 1487 1490 1493 1496 1498 1501 1503 1505 1507
1401 1399 1399 1398 1398 1399 1401 1403 1406 1410 1413 1416 1420 1423 1427 1431 1435 1439 1443 1447 1451 1454 1458 1462 1465 1468 1472 1475 1480 1483 1485 1489 1492 1494 1497 1498 1500 1502
1397 1395 1394 1393 1394 1394 1396 1398 1401 1405 1409 1412 1416 1420 1424 1428 1432 1436 1441 1445 1449 1453 1457 1460 1463 1466 1469 1473 1476 1479 1482 1485 1487 1490 1492 1494 1496 1498
1394 1392 1391 1390 1389 1390 1391 1394 1397 1401 1404 1408 1413 1417 1421 1425 1429 1433 1438 1442 1447 1451 1455 1458 1461 1464 1467 1470 1473 1476 1478 1480 1483 1486 1488 1490 1492 1493
1394 1391 1389 1388 1387 1387 1388 1390 1393 1396 1400 1404 1409 1413 1417 1421 1425 1429 1434 1439 1443 1448 1451 1455 1458 1461 1464 1467 1470 1472 1475 1477 1480 1482 1484 1485 1487 1488
1393 1391 1389 1387 1386 1385 1385 1386 1389 1392 1396 1400 1404 1409 1413 1417 1421 1425 1430 1434 1439 1443 1446 1450 1454 1458 1461 1464 1467 1469 1472 1474 1476 1478 1479 1480 1481 1483
1394 1391 1389 1387 1385 1384 1384 1384 1386 1389 1392 1395 1400 1404 1408 1412 1417 1421 1425 1429 1433 1437 1441 1446 1451 1453 1457 1460 1462 1465 1468 1470 1472 1473 1474 1475 1476 1477
1394 1392 1390 1388 1385 1384 1383 1384 1385 1386 1389 1392 1396 1399 1403 1407 1412 1415 1419 1423 1428 1431 1437 1440 1445 1448 1452 1455 1458 1461 1463 1465 1467 1468 1469 1470 1471 1471
1395 1393 1391 1389 1387 1385 1385 1385 1386 1387 1388 1391 1393 1396 1399 1402 1406 1410 1413 1418 1423 1426 1431 1434 1438 1442 1446 1449 1453 1456 1458 1460 1461 1463 1463 1464 1464 1465
1397 1395 1394 1392 1390 1388 1387 1387 1388 1389 1390 1391 1393 1394 1396 1399 1401 1405 1409 1413 1416 1420 1424 1428 1432 1436 1440 1443 1447 1450 1452 1454 1455 1456 1457 1458 1458 1458
1398 1396 1395 1394 1393 1390 1390 1390 1390 1391 1391 1392 1393 1394 1396 1397 1399 1402 1405 1408 1411 1415 1419 1424 1427 1431 1435 1438 1441 1444 1446 1448 1449 1450 1450 1451 1451 1451
1399 1397 1397 1396 1395 1393 1392 1392 1392 1393 1393 1393 1394 1395 1396 1398 1399 1401 1403 1406 1409 1412 1415 1419 1423 1427 1430 1433 1436 1439 1441 1442 1443 1443 1444 1445 1445 1445
1400 1399 1398 1397 1396 1395 1395 1395 1394 1395 1395 1396 1396 1397 1398 1399 1401 1402 1403 1405 1408 1411 1414 1417 1420 1423 1427 1430 1433 1435 1436 1437 1437 1438 1439 1439 1439 1439
1400 1399 1398 1397 1397 1397 1397 1397 1397 1397 1397 1398 1399 1400 1401 1402 1403 1404 1405 1407 1408 1410 1413 1416 1419 1421 1424 1427 1429 1431 1432 1433 1432 1433 1433 1433 1433 1433
1399 1398 1398 1397 1398 1398 1398 1398 1398 1399 1400 1400 1401 1402 1403 1403 1404 1405 1407 1407 1409 1410 1412 1415 1417 1419 1421 1423 1425 1426 1427 1427 1427 1427 1427 1428 1428 1427
1399 1398 1398 1398 1399 1399 1399 1400 1400 1401 1401 1402 1402 1403 1403 1404 1405 1406 1407 1408 1409 1410 1411 1413 1415 1416 1418 1420 1421 1421 1422 1422 1422 1422 1421 1421 1423 1422
1400 1400 1400 1400 1400 1401 1401 1402 1402 1402 1402 1403 1403 1403 1404 1404 1405 1406 1407 1408 1408 1409 1410 1411 1412 1414 1415 1416 1417 1417 1417 1417 1417 1417 1416 1415 1415 1417
1402 1402 1402 1402 1403 1403 1403 1403 1403 1403 1403 1403 1404 1404 1404 1404 1405 1406 1406 1407 1407 1408 1408 1409 1409 1410 1411 1412 1413 1414 1414 1413 1413 1413 1412 1410 1409 1409
1404 1404 1404 1404 1404 1404 1404 1404 1404 1404 1404 1404 1404 1404 1404 1404 1405 1405 1405 1406 1406 1406 1407 1407 1407 1407 1408 1408 1409 1410 1411 1410 1408 1407 1407 1405 1404 1404
1405 1405 1405 1405 1404 1404 1404 1404 1404 1404 1404 1404 1404 1404 1403 1403 1404 1404 1404 1404 1404 1404 1404 1405 1404 1405 1404 1405 1405 1405 1407 1407 1405 1403 1402 1400 1398 1396
1407 1406 1405 1405 1404 1404 1403 1403 1403 1402 1402 1402 1402 1402 1402 1402 1402 1402 1402 1402 1402 1402 1402 1402 1402 1402 1402 1401 1401 1401 1401 1402 1402 1401 1400 1398 1396 1392
1408 1407 1406 1405 1404 1403 1402 1401 1401 1401 1400 1400 1400 1399 1399 1399 1399 1399 1399 1399 1399 1399 1399 1399 1399 1399 1398 1398 1397 1397 1397 1397 1396 1396 1397 1396 1394 1391